"2009-06-15 00:00:00",976625,5.932,141.1,2.662,0.24,14.94,106.8018,16.69,17.7,38.65,0,110.7,13.29,17.50,103.1
"2009-06-15 00:00:30",976626,5.728,142.3,2.279,0.148,15.16,106.7994,16.68,17.69,38.49,0,110.7,13.29,17.49,104.3
"2009-06-15 00:01:00",976627,6.83,139.5,1.158,0.355,14.85,106.797,16.67,17.7,38.85,0,110.7,13.29,17.49,101.5
"2009-06-15 00:01:30",976628,6.96,137.5,1.403,0.385,15.05,106.7909,16.66,17.69,38.86,0,110.7,13.29,17.47,99.5
"2009-06-15 00:02:00",976629,6.215,137.9,2.778,0.244,15.18,106.7717,16.61,17.67,38.49,0,110.7,13.29,17.42,99.9
"2009-06-15 00:02:30",976630,7.223,136.7,0.982,0.185,14.48,106.7586,16.58,17.68,39.7,0,110.7,13.29,17.39,98.7
"2009-06-15 00:03:00",976631,7.133,138.7,0.583,0.107,14.58,106.7572,16.57,17.68,40.39,0,110.7,13.29,17.38,100.7
"2009-06-15 00:03:30",976632,7.198,140.6,1.094,0.123,14.66,106.7551,16.57,17.65,40.67,0,110.7,13.29,17.38,102.6
"2009-06-15 00:04:00",976633,7.135,142.9,1.381,0.146,14.48,106.7324,16.51,17.65,41.55,0,110.7,13.29,17.32,104.9
"2009-06-15 00:04:30",976634,6.772,140.7,3.146,0.303,14.43,106.7225,16.48,17.63,43.43,0,110.7,13.29,17.29,102.7
"2009-06-15 00:05:00",976635,7.073,144.6,1.363,0.112,14.61,106.718,16.47,17.62,43.77,0,110.7,13.29,17.28,106.6
"2009-06-15 00:05:30",976636,6.86,145.9,2.572,0.09,15.16,106.6878,16.4,17.59,41.14,0,110.7,13.29,17.20,107.9
"2009-06-15 00:06:00",976637,7.072,146.6,1.353,0.187,14.92,106.6858,16.39,17.55,40.78,0,110.7,13.28,17.20,108.6
"2009-06-15 00:06:30",976638,7.473,145.4,0.886,0.076,14.83,106.665,16.34,17.53,41.51,0,110.7,13.28,17.15,107.4
"2009-06-15 00:07:00",976639,7.619,145.1,1.527,0.207,14.77,106.6541,16.31,17.51,41.93,0,110.7,13.28,17.12,107.1
"2009-06-15 00:07:30",976640,7.763,144.7,0.984,0.089,14.62,106.6507,16.3,17.47,41.96,0,110.7,13.28,17.11,106.7
"2009-06-15 00:08:00",976641,8.14,141.2,1.438,0.338,14.69,106.6225,16.23,17.45,42.52,0,110.7,13.28,17.04,103.2
"2009-06-15 00:08:30",976642,8.61,139,1.294,0.194,14.77,106.6191,16.22,17.41,42.49,0,110.7,13.28,17.03,101.0
"2009-06-15 00:09:00",976643,8.67,139.9,1.073,0.343,14.93,106.5893,16.14,17.38,42.25,0,110.7,13.28,16.95,101.9
"2009-06-15 00:09:30",976644,8.82,140.6,1.047,0.134,14.88,106.5817,16.12,17.34,42.73,0,110.7,13.28,16.93,102.6
"2009-06-15 00:10:00",976645,8.86,138.2,0.71,0.149,14.7,106.5542,16.05,17.3,43.13,0,110.7,13.28,16.86,100.2
"2009-06-15 00:10:30",976646,8.62,138.4,1,0.125,14.76,106.5367,16.01,17.26,43.57,0,110.7,13.28,16.82,100.4
"2009-06-15 00:11:00",976647,8.7,136.2,0.889,0.176,14.79,106.5184,15.96,17.23,43.76,0,110.7,13.27,16.77,98.2
"2009-06-15 00:11:30",976648,8.57,137.5,1.238,0.261,15.2,106.4953,15.9,17.17,42.96,0,110.7,13.27,16.71,99.5
"2009-06-15 00:12:00",976649,8.56,138.1,2.314,0.388,15.26,106.4855,15.88,17.12,42.16,0,110.7,13.28,16.68,100.1
"2009-06-15 00:12:30",976650,8.62,136.5,1.634,0.216,14.65,106.4621,15.82,17.08,43.34,0,110.7,13.28,16.62,98.5
"2009-06-15 00:13:00",976651,8.1,139.3,1.473,0.307,14.6,106.452,15.79,17.04,44.62,0,110.7,13.28,16.60,101.3
"2009-06-15 00:13:30",976652,8.11,138.9,0.916,0.188,14.85,106.4346,15.75,17,44.51,0,110.7,13.28,16.55,100.9
"2009-06-15 00:14:00",976653,7.875,139.4,1.113,0.138,14.95,106.4182,15.7,16.98,43.64,0,110.7,13.28,16.51,101.4
"2009-06-15 00:14:30",976654,7.863,141.1,0.991,0.107,14.72,106.4151,15.7,16.93,44.68,0,110.7,13.28,16.50,103.1
"2009-06-15 00:15:00",976655,7.723,141.4,1.716,0.491,14.65,106.3915,15.64,16.9,45.2,0,110.7,13.28,16.44,103.4
"2009-06-15 00:15:30",976656,7.481,144.4,1.098,0.313,14.73,106.3851,15.62,16.87,47.45,0,110.7,13.28,16.43,106.4
"2009-06-15 00:16:00",976657,7.881,147.2,0.792,0.182,14.77,106.3845,15.62,16.84,45.94,0,110.7,13.28,16.42,109.2
"2009-06-15 00:16:30",976658,7.384,148.6,1.362,0.217,14.69,106.3786,15.6,16.81,46.36,0,110.7,13.28,16.41,110.6
"2009-06-15 00:17:00",976659,7.166,147.9,1.827,0.296,14.53,106.3576,15.55,16.78,47.18,0,110.6,13.28,16.36,109.9
"2009-06-15 00:17:30",976660,7.4,145,0.8,0.11,14.51,106.354,15.54,16.76,47.85,0,110.6,13.28,16.35,107.0
"2009-06-15 00:18:00",976661,7.254,142.7,2.107,0.21,14.59,106.3506,15.53,16.73,48.79,0,110.6,13.28,16.34,104.7
"2009-06-15 00:18:30",976662,6.895,143.4,3.144,0.38,14.59,106.3243,15.46,16.7,48.49,0,110.6,13.28,16.27,105.4
"2009-06-15 00:19:00",976663,6.965,139.9,1.841,0.216,14.64,106.3196,15.45,16.66,48.42,0,110.6,13.28,16.26,101.9
"2009-06-15 00:19:30",976664,6.521,145.5,1.077,0.219,14.69,106.3194,15.45,16.65,47.92,0,110.6,13.28,16.26,107.5
"2009-06-15 00:20:00",976665,6.77,145.1,1.122,0.16,14.77,106.3113,15.43,16.63,47.26,0,110.6,13.28,16.24,107.1
"2009-06-15 00:20:30",976666,6.831,143.8,0.45,0.074,14.83,106.2959,15.39,16.58,47.04,0,110.6,13.28,16.20,105.8
"2009-06-15 00:21:00",976667,6.634,147,1.757,0.108,14.89,106.2873,15.37,16.55,47.01,0,110.6,13.28,16.17,109.0
"2009-06-15 00:21:30",976668,6.515,147.3,1.262,0.177,14.97,106.2894,15.37,16.55,47.02,0,110.6,13.28,16.18,109.3
"2009-06-15 00:22:00",976669,6.659,144.7,1.726,0.175,15.39,106.2873,15.37,16.53,44.74,0,110.6,13.28,16.17,106.7
"2009-06-15 00:22:30",976670,6.616,145.3,0.702,0.16,15.37,106.2864,15.37,16.5,43.55,0,110.6,13.28,16.17,107.3
"2009-06-15 00:23:00",976671,6.378,145,0.594,0.05,15.32,106.2888,15.37,16.5,43,0,110.6,13.28,16.18,107.0
"2009-06-15 00:23:30",976672,6.246,146.4,0.523,0.068,15.35,106.29,15.38,16.5,42.81,0,110.6,13.28,16.18,108.4
"2009-06-15 00:24:00",976673,6.641,147.6,0.993,0.152,15.42,106.3059,15.42,16.49,42.78,0,110.6,13.28,16.22,109.6
"2009-06-15 00:24:30",976674,6.498,146.7,0.965,0.282,15.4,106.321,15.46,16.5,42.75,0,110.6,13.28,16.26,108.7
"2009-06-15 00:25:00",976675,6.554,146.8,2.832,0.166,15.3,106.3223,15.46,16.5,42.74,0,110.6,13.28,16.26,108.8
"2009-06-15 00:25:30",976676,6.489,150.9,0.956,0.192,15.07,106.3328,15.49,16.53,43.28,0,110.6,13.28,16.29,112.9
"2009-06-15 00:26:00",976677,6.017,151.4,0.735,0.139,15.15,106.3567,15.55,16.54,43.24,0,110.6,13.28,16.35,113.4
"2009-06-15 00:26:30",976678,6.302,152.4,1.184,0.106,15,106.3571,15.55,16.55,43.13,0,110.6,13.28,16.35,114.4
"2009-06-15 00:27:00",976679,5.774,152,2.085,0.118,14.95,106.3857,15.62,16.58,43.33,0,110.6,13.28,16.43,114.0
"2009-06-15 00:27:30",976680,6.017,155.2,0.793,0.128,14.53,106.3926,15.64,16.61,44.26,0,110.6,13.28,16.45,117.2
"2009-06-15 00:28:00",976681,5.792,153.4,1.252,0.153,14.64,106.3999,15.66,16.62,44.73,0,110.6,13.28,16.46,115.4
"2009-06-15 00:28:30",976682,5.421,157,1.113,0.115,14.98,106.4222,15.71,16.64,44.13,0,110.6,13.28,16.52,119.0
"2009-06-15 00:29:00",976683,5.049,157.1,0.836,0.09,14.93,106.4209,15.71,16.69,43.67,0,110.6,13.28,16.52,119.1
"2009-06-15 00:29:30",976684,4.721,157.6,1.38,0.088,14.97,106.4281,15.73,16.71,43.43,0,110.6,13.28,16.54,119.6
"2009-06-15 00:30:00",976685,4.761,159.8,0.778,0.074,14.96,106.4545,15.8,16.72,42.94,0,110.6,13.28,16.60,121.8
"2009-06-15 00:30:30",976686,4.65,159.7,2.351,0.1,15.02,106.4547,15.8,16.75,42.71,0,110.6,13.28,16.60,121.7
"2009-06-15 00:31:00",976687,4.602,161.3,1.28,0.14,15.02,106.4642,15.82,16.78,42.71,0,110.6,13.28,16.63,123.3
"2009-06-15 00:31:30",976688,4.963,160.2,1.169,0.085,14.62,106.4867,15.88,16.81,43.57,0,110.6,13.28,16.69,122.2
"2009-06-15 00:32:00",976689,4.968,157.6,0.858,0.076,14.76,106.4875,15.88,16.84,43.57,0,110.6,13.28,16.69,119.6
"2009-06-15 00:32:30",976690,4.947,161.6,1.829,0.085,14.61,106.5019,15.92,16.86,43.85,0,110.6,13.28,16.73,123.6
"2009-06-15 00:33:00",976691,4.773,164.5,0.843,0.074,14.93,106.5193,15.96,16.89,44.05,0,110.6,13.28,16.77,126.5
"2009-06-15 00:33:30",976692,4.482,164.9,1.152,0.1,14.86,106.519,15.96,16.92,43.6,0,110.6,13.28,16.77,126.9
"2009-06-15 00:34:00",976693,4.4,166.9,1.086,0.139,14.52,106.5224,15.97,16.94,43.96,0,110.6,13.28,16.78,128.9
"2009-06-15 00:34:30",976694,4.158,168.4,0.648,0.058,14.97,106.5383,16.01,16.97,44.16,0,110.6,13.28,16.82,130.4
"2009-06-15 00:35:00",976695,4.254,167.3,1.072,0.085,14.92,106.5518,16.05,16.98,43.74,0,110.6,13.28,16.85,129.3
"2009-06-15 00:35:30",976696,3.942,168.5,1.499,0.119,14.52,106.5518,16.05,17,44.1,0,110.6,13.28,16.85,130.5
"2009-06-15 00:36:00",976697,3.939,168.4,1.551,0.204,14.66,106.5518,16.05,17.01,44.26,0,110.6,13.28,16.85,130.4
"2009-06-15 00:36:30",976698,4.038,164.6,1.635,0.089,14.37,106.5518,16.05,17.03,44.24,0,110.6,13.28,16.85,126.6
"2009-06-15 00:37:00",976699,4.023,167.4,1.486,0.062,14.4,106.5518,16.05,17.03,44.61,0,110.6,13.28,16.85,129.4
"2009-06-15 00:37:30",976700,3.957,169.2,0.712,0.068,14.45,106.5521,16.05,17.04,44.78,0,110.6,13.28,16.86,131.2
"2009-06-15 00:38:00",976701,4.21,172,2.295,0.147,14.57,106.553,16.05,17.06,44.88,0,110.6,13.28,16.86,134.0
"2009-06-15 00:38:30",976702,4.587,178,2.045,0.139,14.63,106.5524,16.05,17.07,44.77,0,110.6,13.28,16.86,140.0
"2009-06-15 00:39:00",976703,4.666,181,1.937,0.139,14.41,106.5527,16.05,17.07,45.11,0,110.6,13.28,16.86,143.0
"2009-06-15 00:39:30",976704,4.189,178.5,3.428,0.224,14.41,106.5535,16.05,17.08,47.41,0,110.6,13.28,16.86,140.5
"2009-06-15 00:40:00",976705,4.58,178.1,2.1,0.168,14.35,106.553,16.05,17.08,46.31,0,110.6,13.28,16.86,140.1
"2009-06-15 00:40:30",976706,4.016,179.5,3.045,0.154,14.36,106.5518,16.05,17.09,47.45,0,110.6,13.28,16.85,141.5
"2009-06-15 00:41:00",976707,3.837,184.1,2.555,0.265,14.55,106.5518,16.05,17.08,46.73,0,110.6,13.28,16.85,146.1
"2009-06-15 00:41:30",976708,3.095,187.1,4.425,0.131,14.7,106.5518,16.05,17.09,46.65,0,110.6,13.28,16.85,149.1
"2009-06-15 00:42:00",976709,3.358,181.7,3.611,0.279,14.76,106.5518,16.05,17.09,45.77,0,110.6,13.27,16.85,143.7
"2009-06-15 00:42:30",976710,3.665,189.9,2.309,0.111,14.57,106.5518,16.05,17.08,45.6,0,110.6,13.27,16.85,151.9
"2009-06-15 00:43:00",976711,3.675,182.2,3.236,0.291,14.61,106.5518,16.05,17.08,46.17,0,110.7,13.27,16.85,144.2
"2009-06-15 00:43:30",976712,3.723,186.7,5.222,0.193,14.62,106.5518,16.05,17.08,46.84,0,110.6,13.27,16.85,148.7
"2009-06-15 00:44:00",976713,3.61,184.6,3.152,0.186,14.8,106.5518,16.05,17.1,47.2,0,110.6,13.27,16.85,146.6
"2009-06-15 00:44:30",976714,3.707,187.3,1.415,0.13,14.8,106.5518,16.05,17.07,46.05,0,110.7,13.27,16.85,149.3
"2009-06-15 00:45:00",976715,3.84,183.2,2.817,0.144,14.95,106.5518,16.05,17.07,45.1,0,110.6,13.27,16.85,145.2
"2009-06-15 00:45:30",976716,3.521,184.3,2.087,0.169,14.96,106.5518,16.05,17.08,44.51,0,110.6,13.27,16.85,146.3
"2009-06-15 00:46:00",976717,3.876,182.2,1.7,0.256,14.9,106.5518,16.05,17.07,44.37,0,110.7,13.27,16.85,144.2
"2009-06-15 00:46:30",976718,3.752,186.7,2.903,0.198,14.77,106.5518,16.05,17.08,44.67,0,110.7,13.27,16.85,148.7
"2009-06-15 00:47:00",976719,3.458,186.2,2.637,0.174,14.76,106.5518,16.05,17.1,44.9,0,110.7,13.28,16.85,148.2
"2009-06-15 00:47:30",976720,3.738,183.6,1.09,0.112,14.97,106.5518,16.05,17.09,44.73,0,110.7,13.28,16.85,145.6
"2009-06-15 00:48:00",976721,3.813,181.8,0.976,0.196,14.98,106.5532,16.05,17.09,44.33,0,110.7,13.28,16.86,143.8
"2009-06-15 00:48:30",976722,3.962,181.4,0.806,0.076,14.82,106.5701,16.09,17.11,44.4,0,110.7,13.28,16.90,143.4
"2009-06-15 00:49:00",976723,3.648,181.2,1.143,0.174,14.82,106.5746,16.11,17.1,44.57,0,110.7,13.28,16.91,143.2
"2009-06-15 00:49:30",976724,3.121,178.6,1.452,0.118,15.07,106.578,16.11,17.11,44.05,0,110.7,13.28,16.92,140.6
"2009-06-15 00:50:00",976725,3.062,176,1.273,0.107,15.15,106.5853,16.13,17.12,43.13,0,110.7,13.28,16.94,138.0
"2009-06-15 00:50:30",976726,3.045,173,1.802,0.155,15.19,106.5853,16.13,17.11,42.52,0,110.7,13.28,16.94,135.0
"2009-06-15 00:51:00",976727,3.053,171.9,1.29,0.089,15.27,106.5856,16.13,17.12,42.16,0,110.7,13.28,16.94,133.9
"2009-06-15 00:51:30",976728,3.425,174,2.348,0.242,15.13,106.5847,16.13,17.14,41.9,0,110.7,13.28,16.94,136.0
"2009-06-15 00:52:00",976729,3.585,179.7,1.31,0.06,15.13,106.5931,16.15,17.15,41.97,0,110.7,13.28,16.96,141.7
"2009-06-15 00:52:30",976730,3.386,177.8,2.495,0.076,15.15,106.6142,16.21,17.15,41.79,0,110.7,13.28,17.02,139.8
"2009-06-15 00:53:00",976731,3.193,175.3,2.367,0.105,15.21,106.6173,16.21,17.17,41.45,0,110.7,13.28,17.02,137.3
"2009-06-15 00:53:30",976732,3.362,178.1,1.086,0.117,15.17,106.6164,16.21,17.18,41.27,0,110.7,13.28,17.02,140.1
"2009-06-15 00:54:00",976733,3.442,179.3,1.008,0.052,15.29,106.6242,16.23,17.22,41.22,0,110.7,13.27,17.04,141.3
"2009-06-15 00:54:30",976734,3.326,180.3,0.542,0.062,15.17,106.6433,16.28,17.22,41.06,0,110.7,13.27,17.09,142.3
"2009-06-15 00:55:00",976735,3.27,181.7,1.017,0.07,15,106.6421,16.28,17.25,40.95,0,110.7,13.27,17.09,143.7
"2009-06-15 00:55:30",976736,3.202,184.9,1.263,0.071,15.1,106.641,16.28,17.27,40.85,0,110.7,13.27,17.08,146.9
"2009-06-15 00:56:00",976737,3.085,186.2,1.075,0.06,15.26,106.6646,16.34,17.28,40.76,0,110.7,13.27,17.14,148.2
"2009-06-15 00:56:30",976738,2.985,188.8,0.527,0.054,15.44,106.6704,16.35,17.31,40.7,0,110.7,13.27,17.16,150.8
"2009-06-15 00:57:00",976739,2.917,191.5,0.693,0.028,15.47,106.6686,16.35,17.33,40.59,0,110.7,13.27,17.15,153.5
"2009-06-15 00:57:30",976740,2.885,194,1.595,0.026,15.44,106.6797,16.37,17.34,40.51,0,110.7,13.27,17.18,156.0
"2009-06-15 00:58:00",976741,2.75,196.3,0.636,0.055,15.31,106.6958,16.42,17.37,40.43,0,110.7,13.27,17.22,158.3
"2009-06-15 00:58:30",976742,2.635,196.7,1.156,0.057,15.06,106.694,16.41,17.4,40.37,0,110.7,13.27,17.22,158.7
"2009-06-15 00:59:00",976743,2.447,196.3,0.792,0.065,15.01,106.695,16.41,17.41,40.31,0,110.7,13.27,17.22,158.3
"2009-06-15 00:59:30",976744,2.314,197.8,0.885,0.027,15.34,106.717,16.47,17.43,40.23,0,110.7,13.26,17.28,159.8
"2009-06-15 01:00:00",976745,2.319,198,0.81,0.05,15.31,106.7262,16.49,17.45,40.14,0,110.7,13.26,17.30,160.0
"2009-06-15 01:00:30",976746,2.209,197.8,0.949,0.041,15.4,106.7247,16.49,17.48,40.06,0,110.7,13.26,17.30,159.8
"2009-06-15 01:01:00",976747,2.138,198.2,0.837,0.031,15.36,106.7428,16.54,17.51,39.98,0,110.7,13.26,17.35,160.2
"2009-06-15 01:01:30",976748,2.122,200.3,1.25,0.02,15.24,106.7576,16.57,17.54,39.79,0,110.7,13.26,17.38,162.3
"2009-06-15 01:02:00",976749,2.081,202.9,0.718,0.028,15.11,106.7576,16.57,17.57,39.59,0,110.7,13.26,17.38,164.9
"2009-06-15 01:02:30",976750,2.201,205.4,0.745,0.044,15.28,106.7733,16.61,17.58,39.5,0,110.7,13.26,17.42,167.4
"2009-06-15 01:03:00",976751,2.29,207.3,0.771,0.048,15.39,106.7884,16.65,17.6,39.43,0,110.7,13.26,17.46,169.3
"2009-06-15 01:03:30",976752,2.419,207.3,1.776,0.067,15.32,106.7875,16.65,17.64,39.45,0,110.7,13.27,17.46,169.3
"2009-06-15 01:04:00",976753,2.375,205.7,0.763,0.064,15.33,106.8034,16.69,17.66,39.42,0,110.7,13.27,17.50,167.7
"2009-06-15 01:04:30",976754,2.268,208.3,2.32,0.05,15.2,106.8197,16.73,17.69,39.37,0,110.7,13.27,17.54,170.3
"2009-06-15 01:05:00",976755,2.215,216.4,1.363,0.032,14.92,106.8197,16.73,17.71,39.36,0,110.7,13.27,17.54,178.4
"2009-06-15 01:05:30",976756,2.27,217.9,1.336,0.019,15.01,106.8256,16.75,17.74,39.38,0,110.7,13.27,17.56,179.9
"2009-06-15 01:06:00",976757,2.273,221.4,0.775,0.042,15.23,106.8507,16.81,17.76,39.34,0,110.7,13.27,17.62,183.4
"2009-06-15 01:06:30",976758,2.272,222.8,1.081,0.032,15.24,106.8535,16.82,17.79,39.19,0,110.7,13.27,17.63,184.8
"2009-06-15 01:07:00",976759,2.296,226.6,1.718,0.067,14.98,106.8549,16.82,17.81,39.22,0,110.7,13.27,17.63,188.6
"2009-06-15 01:07:30",976760,2.35,231.3,0.722,0.032,15.04,106.8754,16.88,17.85,39.37,0,110.7,13.27,17.69,193.3
"2009-06-15 01:08:00",976761,2.468,235,1.575,0.026,15.15,106.8872,16.91,17.86,39.18,0,110.7,13.27,17.72,197.0
"2009-06-15 01:08:30",976762,2.473,238.5,0.181,0.019,15.2,106.8878,16.91,17.91,39.03,0,110.7,13.27,17.72,200.5
"2009-06-15 01:09:00",976763,2.424,240.2,0.629,0.033,15.29,106.912,16.97,17.91,38.88,0,110.7,13.27,17.78,202.2
"2009-06-15 01:09:30",976764,2.479,243.2,1.28,0.04,15.22,106.921,16.99,17.96,38.76,0,110.7,13.26,17.80,205.2
"2009-06-15 01:10:00",976765,2.527,248.1,1.559,0.002,15.04,106.921,16.99,17.97,38.6,0,110.7,13.26,17.80,210.1
"2009-06-15 01:10:30",976766,2.582,247.9,1.254,0.077,15.1,106.9342,17.03,18,38.5,0,110.7,13.26,17.84,209.9
"2009-06-15 01:11:00",976767,2.902,244.5,1.23,0.048,15.24,106.9539,17.08,18.02,38.59,0,110.7,13.26,17.89,206.5
"2009-06-15 01:11:30",976768,3.012,247.2,1.595,0.048,15.07,106.9548,17.08,18.05,38.68,0,110.7,13.26,17.89,209.2
"2009-06-15 01:12:00",976769,2.994,248.5,0.682,0.053,15.18,106.9556,17.08,18.08,38.51,0,110.7,13.26,17.89,210.5
"2009-06-15 01:12:30",976770,3.012,247.6,0.905,0.066,15.15,106.966,17.11,18.08,38.39,0,110.7,13.26,17.92,209.6
"2009-06-15 01:13:00",976771,3.116,246.9,1.195,0.052,15.11,106.9857,17.16,18.12,38.22,0,110.7,13.26,17.97,208.9
"2009-06-15 01:13:30",976772,3.096,248.1,0.849,0.071,15.15,106.9885,17.17,18.13,38.13,0,110.7,13.26,17.98,210.1
"2009-06-15 01:14:00",976773,3.017,247.7,0.822,0.032,15.3,106.9885,17.17,18.14,37.97,0,110.7,13.26,17.98,209.7
"2009-06-15 01:14:30",976774,3.007,247.4,0.665,0.049,15.31,106.9885,17.17,18.16,37.88,0,110.7,13.26,17.98,209.4
"2009-06-15 01:15:00",976775,2.941,246.5,0.727,0.034,15.36,106.9899,17.17,18.18,37.82,0,110.7,13.26,17.98,208.5
"2009-06-15 01:15:30",976776,2.842,246.5,1.151,0.046,15.44,106.9995,17.19,18.19,37.78,0,110.7,13.26,18.01,208.5
"2009-06-15 01:16:00",976777,2.984,247.6,1.316,0.154,15.23,107.0085,17.22,18.18,37.76,0,110.7,13.26,18.03,209.6
"2009-06-15 01:16:30",976778,2.94,248.2,1.212,0.072,15.31,107.0082,17.22,18.22,37.84,0,110.7,13.25,18.03,210.2
"2009-06-15 01:17:00",976779,3.154,248.3,1.105,0.15,15.14,107.0079,17.22,18.22,37.86,0,110.7,13.25,18.03,210.3
"2009-06-15 01:17:30",976780,3.379,247.9,0.852,0.031,15.07,107.0164,17.24,18.22,38.31,0,110.7,13.25,18.05,209.9
"2009-06-15 01:18:00",976781,3.387,246.1,0.497,0.033,15.31,107.0141,17.23,18.23,38.5,0,110.7,13.25,18.04,208.1
"2009-06-15 01:18:30",976782,3.403,247.2,0.584,0.097,15.3,107.0102,17.22,18.22,38.39,0,110.8,13.25,18.03,209.2
"2009-06-15 01:19:00",976783,3.088,247.1,1.217,0.035,15.07,107.011,17.22,18.22,38.32,0,110.8,13.25,18.04,209.1
"2009-06-15 01:19:30",976784,3.076,245.3,0.92,0.056,15.29,107.0074,17.21,18.23,38.15,0,110.8,13.25,18.03,207.3
"2009-06-15 01:20:00",976785,3.005,246,1.248,0.085,15.31,107.0017,17.2,18.21,37.98,0,110.8,13.25,18.01,208.0
"2009-06-15 01:20:30",976786,2.767,247.6,1.332,0.086,15.4,106.9939,17.18,18.22,37.82,0,110.7,13.26,17.99,209.6
"2009-06-15 01:21:00",976787,2.751,250,0.989,0.043,15.4,106.9885,17.17,18.23,37.88,0,110.7,13.26,17.98,212.0
"2009-06-15 01:21:30",976788,2.577,251.2,0.557,0.086,15.34,106.9885,17.17,18.21,37.96,0,110.8,13.26,17.98,213.2
"2009-06-15 01:22:00",976789,2.495,251.3,0.592,0.026,15.22,106.9885,17.17,18.21,37.93,0,110.8,13.26,17.98,213.3
"2009-06-15 01:22:30",976790,2.441,250.9,0.881,0.044,15.28,106.9885,17.17,18.21,37.87,0,110.8,13.26,17.98,212.9
"2009-06-15 01:23:00",976791,2.308,250.9,0.91,0.049,15.43,106.9885,17.17,18.2,37.85,0,110.8,13.26,17.98,212.9
"2009-06-15 01:23:30",976792,2.221,249.6,1.187,0.037,15.46,106.9882,17.17,18.2,37.85,0,110.8,13.26,17.98,211.6
"2009-06-15 01:24:00",976793,2.064,247.5,1.472,0.018,15.36,106.9879,17.16,18.2,37.84,0,110.8,13.26,17.98,209.5
"2009-06-15 01:24:30",976794,2.091,245.3,1.325,0.049,15.31,106.9885,17.17,18.2,37.81,0,110.8,13.26,17.98,207.3
"2009-06-15 01:25:00",976795,1.953,244.1,1.751,0.034,15.18,106.9885,17.17,18.2,37.77,0,110.8,13.26,17.98,206.1
"2009-06-15 01:25:30",976796,1.906,239.3,1.2,0.05,15.26,106.9885,17.17,18.19,37.73,0,110.8,13.26,17.98,201.3
"2009-06-15 01:26:00",976797,2.114,237.7,0.993,0.057,15.01,106.9885,17.17,18.18,37.8,0,110.8,13.26,17.98,199.7
"2009-06-15 01:26:30",976798,2.193,236,0.885,0.019,15.11,106.9879,17.16,18.18,37.93,0,110.8,13.26,17.98,198.0
"2009-06-15 01:27:00",976799,2.282,233.9,1.01,0.038,15.15,106.9882,17.17,18.19,38.07,0,110.8,13.26,17.98,195.9
"2009-06-15 01:27:30",976800,2.185,232.3,1.973,0.036,15.19,106.9879,17.16,18.19,38.47,0,110.8,13.26,17.98,194.3
"2009-06-15 01:28:00",976801,2.185,226.5,1.317,0.024,15.02,106.9876,17.16,18.19,38.48,0,110.8,13.26,17.98,188.5
"2009-06-15 01:28:30",976802,2.187,221.8,0.98,0.019,15.21,106.9879,17.16,18.2,38.26,0,110.8,13.25,17.98,183.8
"2009-06-15 01:29:00",976803,2.201,221.8,1.461,0.078,15.16,106.9846,17.16,18.19,38.06,0,110.8,13.25,17.97,183.8
"2009-06-15 01:29:30",976804,2.345,221.9,1.657,0.093,15.08,106.9897,17.17,18.2,38.32,0,110.8,13.25,17.98,183.9
"2009-06-15 01:30:00",976805,2.654,221.3,2.064,0.181,14.96,106.9913,17.17,18.2,39.46,0,110.8,13.25,17.98,183.3
"2009-06-15 01:30:30",976806,2.821,223.6,0.968,0.086,14.9,107,17.2,18.21,41.49,0,110.8,13.25,18.01,185.6
"2009-06-15 01:31:00",976807,2.743,216.3,5.6,0.209,14.76,107.0032,17.2,18.21,43.42,0,110.8,13.25,18.02,178.3
"2009-06-15 01:31:30",976808,2.509,213.6,3.673,0.14,14.68,107.0022,17.2,18.22,47.21,0,110.8,13.25,18.01,175.6
"2009-06-15 01:32:00",976809,2.754,210.1,1.186,0.066,14.61,107.0035,17.2,18.23,48.1,0,110.8,13.25,18.02,172.1
"2009-06-15 01:32:30",976810,2.816,208,1.747,0.067,14.89,107.005,17.21,18.23,48.41,0,110.7,13.25,18.02,170.0
"2009-06-15 01:33:00",976811,2.674,201.2,2.466,0.094,14.91,107.001,17.2,18.23,48.99,0,110.7,13.25,18.01,163.2
"2009-06-15 01:33:30",976812,2.424,199.8,2.136,0.072,14.85,107.0009,17.2,18.23,49.81,0,110.7,13.24,18.01,161.8
"2009-06-15 01:34:00",976813,2.306,199.3,2.6,0.142,15.16,106.9931,17.18,18.21,50.34,0,110.7,13.24,17.99,161.3
"2009-06-15 01:34:30",976814,2.356,199.8,1.912,0.05,15.04,106.9853,17.16,18.22,50.53,0,110.7,13.24,17.97,161.8
"2009-06-15 01:35:00",976815,2.364,199.8,2.874,0.143,14.97,106.9822,17.15,18.22,50.74,0,110.7,13.24,17.96,161.8
"2009-06-15 01:35:30",976816,2.648,198,1.52,0.078,15.01,106.9813,17.15,18.22,50.84,0,110.7,13.24,17.96,160.0
"2009-06-15 01:36:00",976817,2.656,191.9,2.024,0.068,15.09,106.9828,17.15,18.19,50.8,0,110.7,13.24,17.96,153.9
"2009-06-15 01:36:30",976818,2.571,192.7,3.127,0.091,14.99,106.9828,17.15,18.18,50.82,0,110.7,13.24,17.96,154.7
"2009-06-15 01:37:00",976819,2.542,188.4,2.48,0.054,15.07,106.9779,17.14,18.17,50.58,0,110.7,13.25,17.95,150.4
"2009-06-15 01:37:30",976820,2.495,185.9,2.252,0.113,15.16,106.9583,17.09,18.17,50.65,0,110.7,13.25,17.90,147.9
"2009-06-15 01:38:00",976821,2.654,184.7,1.938,0.213,15.23,106.9514,17.07,18.15,50.78,0,110.7,13.25,17.88,146.7
"2009-06-15 01:38:30",976822,2.781,180.2,2.272,0.153,15.28,106.9535,17.08,18.13,51.11,0,110.7,13.25,17.89,142.2
"2009-06-15 01:39:00",976823,2.923,174,4.416,0.165,15.3,106.9358,17.03,18.1,51.37,0,110.7,13.25,17.84,136.0
"2009-06-15 01:39:30",976824,2.761,174.1,2.703,0.111,15.29,106.9204,16.99,18.09,51.54,0,110.7,13.25,17.80,136.1
"2009-06-15 01:40:00",976825,2.641,171.3,2.008,0.102,15.3,106.9027,16.95,18.05,51.24,0,110.7,13.25,17.76,133.3
"2009-06-15 01:40:30",976826,2.67,175.6,1.317,0.09,15.31,106.8867,16.9,18.03,50.99,0,110.7,13.25,17.72,137.6
"2009-06-15 01:41:00",976827,2.64,171.6,1.959,0.074,15.3,106.8614,16.84,17.99,51.08,0,110.7,13.25,17.65,133.6
"2009-06-15 01:41:30",976828,2.636,172.8,1.665,0.187,15.41,106.8512,16.81,17.94,51.02,0,110.7,13.25,17.62,134.8
"2009-06-15 01:42:00",976829,2.621,170.8,2.916,0.055,15.37,106.8222,16.74,17.91,51.35,0,110.7,13.25,17.55,132.8
"2009-06-15 01:42:30",976830,2.465,165,1.356,0.117,15.44,106.8135,16.72,17.88,51.42,0,110.7,13.25,17.53,127.0
"2009-06-15 01:43:00",976831,2.423,166.8,2.437,0.148,15.49,106.7865,16.65,17.83,51.37,0,110.7,13.25,17.46,128.8
"2009-06-15 01:43:30",976832,2.472,168.1,1.104,0.098,15.49,106.7708,16.61,17.8,51.64,0,110.7,13.25,17.42,130.1
"2009-06-15 01:44:00",976833,2.455,163,1.993,0.054,15.47,106.7522,16.56,17.76,51.98,0,110.7,13.25,17.37,125.0
"2009-06-15 01:44:30",976834,2.461,161,2.929,0.099,15.51,106.7339,16.51,17.72,52.62,0,110.7,13.25,17.32,123.0
"2009-06-15 01:45:00",976835,3.019,154.4,2.884,0.073,15.56,106.7184,16.47,17.67,53.11,0,110.7,13.25,17.28,116.4
"2009-06-15 01:45:30",976836,2.778,155.5,1.612,0.116,15.67,106.6976,16.42,17.63,53.45,0,110.7,13.25,17.23,117.5
"2009-06-15 01:46:00",976837,3.006,156.7,1.604,0.204,15.8,106.6847,16.39,17.6,53.68,0,110.7,13.26,17.20,118.7
"2009-06-15 01:46:30",976838,3.576,156.8,1.028,0.161,15.74,106.672,16.35,17.55,53.63,0,110.7,13.26,17.16,118.8
"2009-06-15 01:47:00",976839,3.847,156.9,1.188,0.067,15.65,106.6509,16.3,17.51,53.46,0,110.7,13.26,17.11,118.9
"2009-06-15 01:47:30",976840,4.002,158.6,0.922,0.138,15.89,106.6377,16.27,17.48,53.48,0,110.7,13.26,17.08,120.6